Datetime,Model-derived RMSE,Model-derived Mean Vector Difference,Model-derived Standard Deviation,Model-derived Normalized RMSE,Model-derived Mean Absolute Directional Difference,Observational count (1000s)
01 Nov 2018 00:00,5.41,3.99,3.65,.37,15.03,.12
01 Nov 2018 12:00,na,na,na,na,na,na
02 Nov 2018 00:00,4.92,3.80,3.13,.27,7.91,.07
02 Nov 2018 12:00,na,na,na,na,na,na
03 Nov 2018 00:00,5.77,4.62,3.46,.25,11.42,.07
03 Nov 2018 12:00,na,na,na,na,na,na
04 Nov 2018 00:00,na,na,na,na,na,na
04 Nov 2018 12:00,na,na,na,na,na,na
05 Nov 2018 00:00,6.93,5.62,4.04,.24,10.61,.13
05 Nov 2018 12:00,5.74,4.71,3.27,.22,10.86,.12
06 Nov 2018 00:00,5.37,4.64,2.70,.28,10.19,.09
06 Nov 2018 12:00,4.71,4.08,2.35,.22,8.21,.16
07 Nov 2018 00:00,4.32,3.80,2.06,.17,6.20,.12
07 Nov 2018 12:00,4.55,3.89,2.35,.18,5.65,.11
08 Nov 2018 00:00,5.51,4.39,3.33,.15,4.65,.19
08 Nov 2018 12:00,3.87,3.41,1.83,.19,9.40,.16
09 Nov 2018 00:00,4.66,3.88,2.59,.17,5.68,.17
09 Nov 2018 12:00,4.50,3.82,2.36,.18,5.98,.16
10 Nov 2018 00:00,4.52,3.90,2.27,.27,10.14,.15
10 Nov 2018 12:00,4.83,4.03,2.65,.20,8.37,.16
11 Nov 2018 00:00,4.88,3.92,2.91,.16,4.11,.20
11 Nov 2018 12:00,5.20,4.14,3.14,.17,4.67,.18
12 Nov 2018 00:00,5.03,3.95,3.11,.15,4.96,.15
12 Nov 2018 12:00,4.58,3.93,2.35,.19,7.94,.10
13 Nov 2018 00:00,4.21,3.57,2.22,.23,8.89,.07
13 Nov 2018 12:00,7.89,5.22,5.92,.24,5.15,.07
14 Nov 2018 00:00,6.26,5.32,3.29,.27,8.84,.06
15 Nov 2018 00:00,5.33,4.33,3.10,.28,11.25,.09
15 Nov 2018 12:00,4.53,3.55,2.80,.21,7.75,.21
16 Nov 2018 00:00,5.34,4.46,2.93,.19,5.40,.13
16 Nov 2018 12:00,4.14,3.27,2.54,.17,4.57,.37
17 Nov 2018 00:00,3.91,3.26,2.16,.15,5.35,.33
17 Nov 2018 12:00,3.45,2.88,1.89,.13,4.15,.45
18 Nov 2018 00:00,4.18,3.41,2.41,.15,7.08,.15
18 Nov 2018 12:00,4.21,3.53,2.29,.14,4.76,.13
19 Nov 2018 00:00,5.30,4.31,3.09,.19,8.16,.15
19 Nov 2018 12:00,5.65,4.68,3.18,.23,7.86,.17
20 Nov 2018 00:00,4.32,3.42,2.63,.19,8.08,.21
20 Nov 2018 12:00,6.05,4.41,4.14,.26,9.65,.22
21 Nov 2018 00:00,4.84,3.84,2.95,.20,6.63,.28
21 Nov 2018 12:00,3.64,3.09,1.91,.15,4.34,.40
22 Nov 2018 00:00,4.51,3.49,2.85,.19,5.66,.29
22 Nov 2018 12:00,4.36,3.72,2.28,.27,12.26,.27
23 Nov 2018 00:00,4.65,3.40,3.17,.32,9.01,.12
23 Nov 2018 12:00,4.44,3.95,2.03,.26,10.18,.12
24 Nov 2018 00:00,6.10,5.07,3.39,.31,9.51,.08
24 Nov 2018 12:00,6.41,5.32,3.58,.28,11.41,.10
25 Nov 2018 00:00,6.58,5.53,3.56,.29,12.52,.09
25 Nov 2018 12:00,4.49,3.83,2.33,.21,8.44,.08
26 Nov 2018 00:00,5.36,4.56,2.80,.19,6.18,.11
26 Nov 2018 12:00,7.16,5.93,4.01,.28,12.40,.08
27 Nov 2018 00:00,6.76,5.16,4.37,.20,6.83,.21
27 Nov 2018 12:00,6.30,5.63,2.83,.17,7.36,.05
28 Nov 2018 00:00,6.66,4.71,4.71,.35,9.41,.05
28 Nov 2018 12:00,5.62,4.65,3.14,.30,11.36,.18
29 Nov 2018 00:00,4.58,3.71,2.69,.24,11.01,.15
29 Nov 2018 12:00,5.18,4.16,3.08,.24,10.62,.16
30 Nov 2018 00:00,6.30,4.91,3.93,.28,11.53,.19
30 Nov 2018 12:00,6.89,5.31,4.39,.33,13.84,.19
01 Dec 2018 00:00,5.94,4.50,3.87,.32,11.49,.19
01 Dec 2018 12:00,5.29,4.32,3.05,.36,14.75,.14
02 Dec 2018 00:00,4.92,4.12,2.68,.16,8.57,.14
02 Dec 2018 12:00,4.78,4.05,2.53,.18,7.11,.15
03 Dec 2018 00:00,5.13,4.19,2.96,.18,9.05,.21
03 Dec 2018 12:00,5.27,4.28,3.06,.26,12.34,.15
04 Dec 2018 00:00,5.37,4.07,3.50,.20,6.04,.26
05 Dec 2018 12:00,3.93,3.45,1.88,.15,7.25,.22
06 Dec 2018 00:00,4.63,3.96,2.41,.17,10.18,.14
06 Dec 2018 12:00,4.82,3.99,2.70,.25,9.68,.19
07 Dec 2018 00:00,4.29,3.46,2.53,.18,6.89,.14
07 Dec 2018 12:00,5.60,4.26,3.63,.23,10.40,.16
08 Dec 2018 00:00,5.10,4.35,2.66,.19,9.86,.10
08 Dec 2018 12:00,5.20,4.36,2.83,.22,8.89,.09
09 Dec 2018 00:00,6.38,5.21,3.67,.25,11.97,.14
09 Dec 2018 12:00,4.81,3.98,2.70,.22,10.63,.21
10 Dec 2018 00:00,5.51,4.78,2.73,.21,12.59,.13
10 Dec 2018 12:00,4.59,3.78,2.60,.19,9.92,.15
11 Dec 2018 00:00,7.55,5.52,5.15,.33,13.47,.11
11 Dec 2018 12:00,4.96,4.08,2.81,.20,8.34,.16
12 Dec 2018 00:00,6.25,5.53,2.91,.22,10.97,.05
12 Dec 2018 12:00,8.93,7.24,5.24,.37,14.14,.10
13 Dec 2018 00:00,5.79,4.78,3.26,.38,13.42,.06
13 Dec 2018 12:00,7.63,6.37,4.19,.36,13.15,.06
14 Dec 2018 00:00,5.05,4.33,2.60,.20,6.81,.10
14 Dec 2018 12:00,6.25,5.54,2.90,.27,11.80,.06
15 Dec 2018 00:00,7.43,5.69,4.77,.40,15.58,.07
15 Dec 2018 12:00,7.57,5.95,4.67,.35,13.35,.09
16 Dec 2018 00:00,7.48,6.83,3.04,.25,12.81,.08
16 Dec 2018 12:00,8.51,6.76,5.16,.32,9.87,.14
17 Dec 2018 00:00,5.95,4.74,3.59,.24,8.46,.13
17 Dec 2018 12:00,6.85,5.30,4.34,.25,8.66,.09
18 Dec 2018 00:00,4.47,3.84,2.28,.18,5.70,.09
18 Dec 2018 12:00,4.50,3.73,2.50,.18,7.04,.23
19 Dec 2018 00:00,5.45,4.30,3.35,.33,15.40,.12
19 Dec 2018 12:00,6.15,5.44,2.87,.27,7.69,.07
20 Dec 2018 00:00,7.10,5.27,4.76,.32,14.56,.07
20 Dec 2018 12:00,4.98,4.18,2.70,.20,6.65,.06
21 Dec 2018 00:00,8.17,6.90,4.38,.33,4.49,.02
21 Dec 2018 12:00,6.02,4.99,3.37,.19,8.38,.05
22 Dec 2018 00:00,5.48,4.18,3.55,.36,13.51,.08
22 Dec 2018 12:00,5.41,4.07,3.57,.25,9.27,.19
23 Dec 2018 00:00,6.31,4.86,4.03,.24,8.47,.16
23 Dec 2018 12:00,3.70,3.21,1.83,.14,4.43,.25
24 Dec 2018 00:00,4.70,4.09,2.32,.14,4.49,.16
24 Dec 2018 12:00,4.80,3.96,2.72,.14,5.70,.30
25 Dec 2018 00:00,6.01,4.72,3.71,.21,7.12,.19
25 Dec 2018 12:00,4.77,3.91,2.74,.15,5.41,.12
26 Dec 2018 00:00,6.58,4.99,4.29,.22,5.99,.11
26 Dec 2018 12:00,4.81,4.30,2.17,.20,6.82,.06
27 Dec 2018 00:00,4.15,3.23,2.61,.16,5.78,.09
27 Dec 2018 12:00,5.41,4.75,2.58,.25,10.05,.06
28 Dec 2018 00:00,6.78,5.41,4.08,.24,12.12,.07
28 Dec 2018 12:00,5.95,5.37,2.56,.19,6.63,.03
29 Dec 2018 00:00,4.31,3.03,3.07,.13,5.83,.05
29 Dec 2018 12:00,6.73,4.67,4.85,.22,4.95,.04
30 Dec 2018 00:00,9.74,7.29,6.45,.36,8.79,.07
30 Dec 2018 12:00,na,na,na,na,na,na
31 Dec 2018 00:00,5.56,3.93,3.93,.20,6.86,.11
31 Dec 2018 12:00,5.35,4.65,2.63,.18,7.98,.05
01 Jan 2019 00:00,na,na,na,na,na,na
01 Jan 2019 12:00,5.94,4.71,3.61,.15,6.08,.10
02 Jan 2019 00:00,7.36,5.70,4.65,.24,6.27,.05
02 Jan 2019 12:00,6.17,5.07,3.52,.17,5.55,.10
03 Jan 2019 00:00,6.80,5.50,4.00,.27,8.19,.05
03 Jan 2019 12:00,4.35,3.22,2.93,.23,5.35,.11
04 Jan 2019 00:00,4.57,3.65,2.75,.31,10.74,.09
04 Jan 2019 12:00,5.98,4.75,3.64,.34,14.13,.14
05 Jan 2019 00:00,5.58,3.87,4.01,.25,5.86,.23
09 Jan 2019 00:00,4.71,4.12,2.28,.18,8.79,.05
09 Jan 2019 12:00,4.43,3.86,2.17,.16,5.53,.12
10 Jan 2019 00:00,5.97,4.84,3.49,.22,7.17,.07
10 Jan 2019 12:00,5.57,4.73,2.94,.20,7.63,.12
11 Jan 2019 00:00,5.79,4.70,3.39,.25,8.57,.12
11 Jan 2019 12:00,3.82,3.25,2.00,.14,4.63,.07
12 Jan 2019 00:00,3.96,3.31,2.16,.14,4.03,.06
12 Jan 2019 12:00,4.02,3.61,1.77,.16,8.30,.03
13 Jan 2019 00:00,6.77,5.63,3.75,.31,11.92,.10
13 Jan 2019 12:00,4.75,3.88,2.73,.19,9.06,.14
14 Jan 2019 00:00,5.52,4.47,3.23,.25,9.54,.17
14 Jan 2019 12:00,4.34,3.55,2.49,.20,9.14,.23
15 Jan 2019 00:00,5.74,3.84,4.26,.23,5.90,.30
15 Jan 2019 12:00,5.26,4.48,2.75,.21,7.80,.31
16 Jan 2019 00:00,4.64,3.79,2.67,.18,6.15,.44
16 Jan 2019 12:00,3.93,3.17,2.32,.16,4.58,.22
17 Jan 2019 00:00,4.06,3.26,2.41,.16,5.21,.17
17 Jan 2019 12:00,4.69,3.85,2.67,.15,5.89,.17
18 Jan 2019 00:00,4.65,4.07,2.24,.16,5.15,.10
18 Jan 2019 12:00,3.64,3.09,1.91,.11,3.32,.13
19 Jan 2019 00:00,3.58,2.90,2.09,.13,4.91,.05
19 Jan 2019 12:00,7.04,5.86,3.90,.21,6.83,.01
20 Jan 2019 00:00,4.37,3.40,2.74,.17,5.59,.02
20 Jan 2019 12:00,5.67,5.32,1.96,.30,10.47,.05
21 Jan 2019 00:00,4.22,3.28,2.65,.19,7.78,.08
21 Jan 2019 12:00,4.47,3.84,2.27,.16,5.20,.10
22 Jan 2019 00:00,4.13,3.69,1.84,.12,4.12,.07
22 Jan 2019 12:00,3.70,3.36,1.55,.16,6.62,.09
23 Jan 2019 00:00,5.06,4.03,3.05,.16,5.11,.08
23 Jan 2019 12:00,3.46,2.63,2.25,.16,3.92,.16
24 Jan 2019 00:00,5.72,4.44,3.60,.21,6.08,.06
24 Jan 2019 12:00,5.06,3.91,3.21,.21,7.81,.09
25 Jan 2019 00:00,5.75,4.45,3.64,.14,3.61,.13
25 Jan 2019 12:00,5.30,4.55,2.71,.13,3.98,.16
26 Jan 2019 00:00,5.99,4.90,3.43,.16,5.73,.06
26 Jan 2019 12:00,4.93,4.24,2.51,.13,5.67,.09
27 Jan 2019 00:00,4.69,4.20,2.09,.14,5.58,.03
27 Jan 2019 12:00,5.98,5.16,3.01,.13,3.91,.02
28 Jan 2019 00:00,3.79,3.40,1.67,.14,2.17,.01
28 Jan 2019 12:00,3.81,3.28,1.93,.15,6.10,.04
29 Jan 2019 00:00,4.17,3.34,2.50,.13,6.24,.09
29 Jan 2019 12:00,4.72,4.27,2.01,.16,8.23,.12
30 Jan 2019 00:00,3.51,3.11,1.63,.13,6.10,.06
30 Jan 2019 12:00,5.65,4.65,3.22,.22,8.69,.07
31 Jan 2019 00:00,5.31,4.82,2.23,.17,5.67,.06
31 Jan 2019 12:00,5.31,4.29,3.13,.19,5.03,.19
01 Feb 2019 00:00,3.24,2.78,1.66,.10,4.80,.12
01 Feb 2019 12:00,4.56,3.62,2.77,.24,11.62,.10
02 Feb 2019 00:00,4.58,3.75,2.64,.38,9.97,.10
02 Feb 2019 12:00,4.90,4.13,2.63,.31,15.77,.10
03 Feb 2019 00:00,5.08,3.98,3.16,.29,11.38,.14
03 Feb 2019 12:00,4.22,3.22,2.73,.19,6.39,.18
04 Feb 2019 00:00,5.15,4.10,3.12,.24,12.33,.08
04 Feb 2019 12:00,5.44,4.07,3.60,.27,7.19,.17
05 Feb 2019 00:00,4.88,4.24,2.42,.21,8.59,.17
05 Feb 2019 12:00,3.96,3.31,2.16,.20,7.82,.15
06 Feb 2019 00:00,3.29,2.88,1.60,.20,8.55,.05
06 Feb 2019 12:00,6.19,4.91,3.76,.24,9.49,.08
07 Feb 2019 00:00,5.09,4.51,2.36,.17,5.33,.11
07 Feb 2019 12:00,4.88,4.03,2.75,.22,6.55,.11
08 Feb 2019 00:00,4.40,3.33,2.88,.20,7.73,.16
08 Feb 2019 12:00,5.80,4.53,3.63,.23,8.09,.08
09 Feb 2019 00:00,6.97,5.78,3.88,.27,7.44,.03
09 Feb 2019 12:00,4.54,4.14,1.87,.16,7.62,.07
10 Feb 2019 00:00,3.93,3.39,1.97,.14,4.57,.09
10 Feb 2019 12:00,4.72,4.05,2.43,.17,7.08,.12
11 Feb 2019 00:00,4.74,3.56,3.12,.31,13.83,.07
11 Feb 2019 12:00,5.03,3.99,3.06,.28,9.77,.07
12 Feb 2019 00:00,6.50,5.48,3.50,.36,18.72,.10
12 Feb 2019 12:00,4.94,3.90,3.02,.30,14.33,.14
13 Feb 2019 00:00,4.30,3.59,2.36,.27,7.57,.06
13 Feb 2019 12:00,5.05,4.13,2.91,.25,10.41,.05
14 Feb 2019 00:00,5.55,5.06,2.28,.25,9.61,.05
14 Feb 2019 12:00,5.43,4.73,2.66,.24,14.06,.04
15 Feb 2019 00:00,6.10,5.00,3.49,.22,7.56,.04
15 Feb 2019 12:00,4.11,3.36,2.35,.19,7.74,.05
16 Feb 2019 00:00,7.41,6.45,3.65,.26,9.41,.02
16 Feb 2019 12:00,5.91,5.09,3.01,.28,10.57,.07
17 Feb 2019 00:00,5.51,4.16,3.61,.20,7.63,.10
17 Feb 2019 12:00,5.94,4.82,3.48,.17,7.14,.17
18 Feb 2019 00:00,5.21,4.20,3.08,.17,9.07,.08
18 Feb 2019 12:00,5.91,4.88,3.34,.20,7.55,.08
19 Feb 2019 00:00,5.91,5.09,3.02,.18,7.31,.07
19 Feb 2019 12:00,5.52,4.81,2.71,.19,7.39,.05
20 Feb 2019 00:00,3.41,2.97,1.67,.11,6.45,.03
20 Feb 2019 12:00,5.30,4.38,2.98,.18,10.07,.09
21 Feb 2019 00:00,4.31,3.70,2.21,.12,4.29,.05
21 Feb 2019 12:00,5.11,4.35,2.68,.18,5.09,.10
22 Feb 2019 00:00,4.82,4.21,2.34,.13,6.80,.08
22 Feb 2019 12:00,4.23,3.28,2.67,.18,5.74,.10
23 Feb 2019 00:00,3.62,3.24,1.60,.15,6.68,.05
23 Feb 2019 12:00,4.19,3.12,2.80,.25,9.39,.15
24 Feb 2019 00:00,3.79,3.20,2.04,.20,5.15,.07
24 Feb 2019 12:00,5.22,4.69,2.29,.18,9.38,.06
25 Feb 2019 00:00,3.74,3.13,2.03,.13,5.07,.11
25 Feb 2019 12:00,4.56,3.98,2.22,.13,5.86,.12
26 Feb 2019 00:00,3.12,2.61,1.69,.13,5.06,.18
26 Feb 2019 12:00,4.00,3.47,1.99,.17,6.79,.19
27 Feb 2019 00:00,3.95,3.61,1.60,.16,9.30,.08
27 Feb 2019 12:00,4.71,3.87,2.67,.18,5.68,.15
28 Feb 2019 00:00,4.57,3.54,2.88,.20,8.10,.07
28 Feb 2019 12:00,5.49,4.09,3.66,.25,7.30,.25
01 Mar 2019 00:00,3.85,3.26,2.04,.13,4.18,.10
01 Mar 2019 12:00,5.73,4.45,3.61,.24,9.62,.17
02 Mar 2019 00:00,4.72,4.02,2.47,.17,7.06,.10
02 Mar 2019 12:00,6.75,5.25,4.23,.27,8.18,.11
03 Mar 2019 00:00,5.42,4.75,2.61,.22,10.39,.06
03 Mar 2019 12:00,4.58,3.72,2.67,.24,8.14,.06
04 Mar 2019 00:00,4.37,3.83,2.10,.14,5.14,.19
04 Mar 2019 12:00,4.62,3.78,2.65,.14,4.79,.19
05 Mar 2019 00:00,4.66,3.77,2.74,.12,6.08,.16
05 Mar 2019 12:00,4.59,3.70,2.72,.11,3.80,.11
06 Mar 2019 00:00,6.01,4.71,3.73,.15,6.89,.07
06 Mar 2019 12:00,4.09,3.45,2.19,.12,3.25,.09
07 Mar 2019 00:00,5.42,4.02,3.63,.21,8.39,.06
07 Mar 2019 12:00,5.97,5.00,3.26,.20,12.49,.09
08 Mar 2019 00:00,3.15,2.65,1.70,.13,3.90,.04
08 Mar 2019 12:00,4.99,4.30,2.53,.19,7.18,.08
09 Mar 2019 00:00,4.57,3.72,2.65,.18,5.76,.07
11 Mar 2019 00:00,10.09,8.45,5.52,.36,11.40,.06
11 Mar 2019 12:00,5.28,4.61,2.56,.19,8.80,.03
13 Mar 2019 12:00,na,na,na,na,na,na
14 Mar 2019 00:00,8.58,7.05,4.89,.29,6.52,.03
14 Mar 2019 12:00,4.65,3.56,2.99,.19,5.24,.13
15 Mar 2019 00:00,5.71,4.86,2.99,.23,9.29,.10
15 Mar 2019 12:00,4.31,3.69,2.23,.19,6.91,.11
16 Mar 2019 00:00,4.98,4.20,2.68,.14,6.80,.05
16 Mar 2019 12:00,4.57,4.02,2.16,.15,17.27,.07
17 Mar 2019 00:00,4.14,3.51,2.20,.17,7.50,.06
17 Mar 2019 12:00,7.37,5.78,4.57,.35,15.00,.13
18 Mar 2019 00:00,7.52,5.73,4.86,.35,9.73,.08
18 Mar 2019 12:00,5.35,4.72,2.52,.30,12.74,.15
19 Mar 2019 00:00,6.06,5.10,3.26,.46,15.31,.11
19 Mar 2019 12:00,3.98,3.22,2.34,.22,6.63,.13
20 Mar 2019 00:00,5.09,4.08,3.04,.28,8.68,.15
20 Mar 2019 12:00,4.94,4.17,2.65,.18,8.10,.14
21 Mar 2019 00:00,5.00,4.27,2.61,.15,9.01,.19
21 Mar 2019 12:00,6.01,4.49,3.99,.24,10.82,.24
22 Mar 2019 00:00,5.00,4.25,2.64,.20,10.04,.25
22 Mar 2019 12:00,6.68,5.12,4.29,.39,19.07,.08
23 Mar 2019 00:00,4.82,4.14,2.46,.18,8.36,.19
23 Mar 2019 12:00,5.04,3.73,3.38,.24,7.18,.19
24 Mar 2019 00:00,5.21,4.25,3.01,.19,7.22,.19
24 Mar 2019 12:00,6.86,5.45,4.16,.29,17.27,.11
25 Mar 2019 00:00,4.40,3.68,2.41,.20,9.58,.16
25 Mar 2019 12:00,5.03,4.05,2.98,.23,10.33,.24
26 Mar 2019 00:00,4.45,3.67,2.52,.19,6.67,.24
26 Mar 2019 12:00,5.59,4.48,3.35,.22,8.40,.07
27 Mar 2019 00:00,3.67,2.93,2.22,.17,6.97,.09
27 Mar 2019 12:00,3.95,3.26,2.22,.16,9.07,.09
28 Mar 2019 00:00,6.71,4.99,4.49,.26,11.94,.04
28 Mar 2019 12:00,4.88,3.97,2.84,.29,11.87,.10
29 Mar 2019 00:00,3.89,3.04,2.43,.22,5.44,.07
29 Mar 2019 12:00,4.84,4.20,2.41,.25,14.35,.15
30 Mar 2019 00:00,3.96,3.24,2.28,.18,6.28,.10
30 Mar 2019 12:00,5.49,4.26,3.45,.25,7.07,.10
31 Mar 2019 00:00,8.06,6.11,5.27,.39,14.29,.11
31 Mar 2019 12:00,5.97,4.61,3.79,.28,13.69,.14
01 Apr 2019 00:00,4.86,4.11,2.58,.24,9.20,.05
01 Apr 2019 12:00,3.67,3.10,1.96,.13,3.85,.08
02 Apr 2019 00:00,4.55,3.85,2.42,.15,5.33,.12
02 Apr 2019 12:00,7.13,5.80,4.14,.22,8.42,.08
03 Apr 2019 00:00,7.75,5.23,5.72,.38,7.90,.03
03 Apr 2019 12:00,3.57,3.40,1.10,.12,5.75,.04
04 Apr 2019 00:00,3.54,2.72,2.25,.14,4.61,.09
04 Apr 2019 12:00,4.78,4.00,2.61,.19,4.69,.07
05 Apr 2019 00:00,5.36,3.95,3.62,.22,6.20,.08
05 Apr 2019 12:00,4.49,3.83,2.34,.20,8.04,.11
08 Apr 2019 00:00,na,na,na,na,na,na
08 Apr 2019 12:00,5.00,4.40,2.38,.28,8.96,.13
09 Apr 2019 00:00,5.93,4.98,3.20,.22,13.44,.07
09 Apr 2019 12:00,6.18,4.92,3.74,.31,12.00,.12
10 Apr 2019 00:00,6.10,5.33,2.96,.25,13.68,.09
10 Apr 2019 12:00,5.56,4.35,3.46,.21,7.63,.11
11 Apr 2019 00:00,5.68,4.80,3.03,.27,14.66,.09
11 Apr 2019 12:00,4.82,3.40,3.42,.35,12.92,.15
12 Apr 2019 00:00,7.04,5.97,3.72,.50,22.44,.06
12 Apr 2019 12:00,6.23,4.23,4.57,.24,5.61,.10
13 Apr 2019 00:00,5.11,4.55,2.33,.31,16.15,.05
13 Apr 2019 12:00,5.88,4.75,3.46,.32,15.37,.09
14 Apr 2019 00:00,5.48,4.56,3.05,.22,9.98,.07
14 Apr 2019 12:00,6.92,5.16,4.62,.27,8.58,.09
15 Apr 2019 00:00,5.90,4.92,3.24,.22,8.23,.07
15 Apr 2019 12:00,5.31,4.25,3.18,.19,7.81,.12
16 Apr 2019 00:00,6.15,4.60,4.09,.28,9.52,.17
16 Apr 2019 12:00,4.04,3.20,2.47,.17,6.31,.21
17 Apr 2019 00:00,4.63,4.02,2.29,.22,8.24,.17
17 Apr 2019 12:00,4.68,3.89,2.60,.26,9.36,.13
18 Apr 2019 00:00,3.90,3.46,1.79,.21,7.13,.12
18 Apr 2019 12:00,4.56,3.72,2.62,.20,7.11,.07
19 Apr 2019 00:00,5.44,4.31,3.33,.32,8.15,.03
19 Apr 2019 12:00,6.74,5.56,3.81,.31,13.02,.04
20 Apr 2019 00:00,4.14,3.71,1.85,.19,10.93,.04
20 Apr 2019 12:00,3.84,3.27,2.01,.19,8.16,.15
21 Apr 2019 00:00,5.41,4.40,3.14,.26,8.93,.12
21 Apr 2019 12:00,9.28,6.12,6.97,.48,12.35,.11
22 Apr 2019 00:00,4.30,3.16,2.92,.28,8.35,.16
22 Apr 2019 12:00,6.14,4.39,4.30,.40,13.05,.14
23 Apr 2019 00:00,6.23,4.54,4.26,.27,9.44,.07
23 Apr 2019 12:00,6.15,4.88,3.73,.25,7.90,.07
24 Apr 2019 00:00,6.30,5.40,3.24,.30,10.75,.07
24 Apr 2019 12:00,4.52,3.78,2.47,.27,8.77,.06
25 Apr 2019 00:00,5.04,3.87,3.23,.27,12.34,.19
25 Apr 2019 12:00,5.46,4.13,3.57,.35,10.52,.22
26 Apr 2019 00:00,6.43,4.59,4.51,.41,13.35,.16
26 Apr 2019 12:00,3.58,2.65,2.40,.21,5.06,.29
27 Apr 2019 00:00,3.54,3.06,1.77,.18,6.29,.18
27 Apr 2019 12:00,3.65,2.82,2.32,.21,7.95,.23
28 Apr 2019 00:00,3.72,2.89,2.35,.20,5.66,.31
28 Apr 2019 12:00,6.38,4.59,4.43,.30,8.09,.25
29 Apr 2019 00:00,3.04,2.62,1.54,.13,3.86,.15
29 Apr 2019 12:00,4.39,3.44,2.73,.29,11.97,.06
30 Apr 2019 00:00,5.45,3.90,3.80,.18,7.37,.08
30 Apr 2019 12:00,3.75,3.13,2.06,.17,11.00,.17
01 May 2019 00:00,4.89,3.68,3.21,.34,11.22,.12
01 May 2019 12:00,6.15,4.52,4.16,.31,10.70,.19
02 May 2019 00:00,4.33,3.53,2.51,.19,7.45,.14
02 May 2019 12:00,4.08,3.39,2.27,.19,6.07,.12
03 May 2019 00:00,5.06,4.19,2.84,.19,6.95,.15
03 May 2019 12:00,4.61,3.91,2.44,.20,6.70,.14
04 May 2019 00:00,3.63,3.10,1.89,.18,5.55,.08
04 May 2019 12:00,4.45,3.91,2.12,.24,8.86,.09
05 May 2019 00:00,3.88,3.30,2.05,.20,6.40,.20
05 May 2019 12:00,5.10,3.99,3.17,.24,9.43,.32
06 May 2019 00:00,4.02,3.44,2.08,.24,8.49,.17
06 May 2019 12:00,4.47,3.75,2.42,.24,8.40,.26
07 May 2019 00:00,4.38,3.55,2.56,.22,7.22,.24
07 May 2019 12:00,4.08,3.63,1.86,.24,9.88,.27
08 May 2019 00:00,3.48,2.99,1.78,.20,8.24,.08
08 May 2019 12:00,4.74,3.83,2.78,.20,11.78,.16
09 May 2019 00:00,4.32,3.49,2.55,.17,8.88,.09
09 May 2019 12:00,4.63,3.97,2.38,.30,13.65,.14
10 May 2019 00:00,6.88,5.62,3.97,.29,9.08,.15
10 May 2019 12:00,5.39,4.36,3.16,.29,11.81,.15
11 May 2019 00:00,6.26,5.20,3.47,.24,7.59,.16
11 May 2019 12:00,4.97,3.93,3.03,.27,9.57,.19
12 May 2019 00:00,3.64,3.13,1.85,.13,6.14,.08
12 May 2019 12:00,4.64,3.65,2.86,.23,9.81,.25
13 May 2019 00:00,4.99,3.83,3.21,.19,6.56,.15
13 May 2019 12:00,4.03,3.48,2.03,.18,7.23,.38
14 May 2019 00:00,5.48,4.48,3.16,.23,9.01,.24
14 May 2019 12:00,4.67,3.59,2.98,.23,9.41,.39
15 May 2019 00:00,7.00,5.49,4.34,.37,12.61,.24
15 May 2019 12:00,4.54,3.60,2.75,.30,12.67,.45
16 May 2019 00:00,4.24,3.22,2.75,.35,12.77,.25
16 May 2019 12:00,5.65,4.20,3.77,.43,14.26,.20
17 May 2019 00:00,5.91,4.69,3.58,.36,12.62,.17
17 May 2019 12:00,4.82,4.02,2.65,.26,9.02,.22
18 May 2019 00:00,5.84,4.66,3.51,.43,23.60,.12
18 May 2019 12:00,4.69,3.99,2.47,.37,20.40,.22
19 May 2019 00:00,4.57,3.75,2.60,.42,14.55,.14
19 May 2019 12:00,4.70,4.15,2.20,.35,19.51,.23
20 May 2019 00:00,5.29,3.88,3.59,.29,9.37,.16
20 May 2019 12:00,6.34,4.61,4.35,.44,11.62,.29
21 May 2019 00:00,4.30,3.34,2.72,.28,8.43,.14
21 May 2019 12:00,4.16,3.57,2.13,.25,11.91,.12
22 May 2019 00:00,5.45,4.10,3.58,.39,12.38,.14
22 May 2019 12:00,4.74,3.38,3.32,.32,10.18,.24
23 May 2019 00:00,4.95,3.96,2.98,.29,11.59,.10
23 May 2019 12:00,4.69,3.61,2.98,.33,16.97,.24
24 May 2019 00:00,4.34,3.35,2.74,.26,9.20,.24
24 May 2019 12:00,4.15,3.13,2.73,.28,8.72,.34
25 May 2019 00:00,4.86,3.34,3.53,.32,7.20,.15
28 May 2019 12:00,na,na,na,na,na,na
29 May 2019 00:00,6.09,4.04,4.55,.37,13.17,.13
29 May 2019 12:00,5.48,4.38,3.28,.28,12.41,.23
30 May 2019 00:00,5.53,4.58,3.09,.25,14.67,.11
30 May 2019 12:00,3.89,3.17,2.26,.18,9.46,.11
31 May 2019 00:00,5.50,4.42,3.26,.22,7.62,.24
31 May 2019 12:00,5.24,4.33,2.95,.24,12.53,.28
01 Jun 2019 00:00,6.98,5.31,4.53,.30,10.06,.25
01 Jun 2019 12:00,4.54,3.61,2.76,.18,6.95,.47
02 Jun 2019 00:00,5.46,4.50,3.08,.24,8.41,.22
02 Jun 2019 12:00,5.68,4.53,3.43,.26,10.00,.28
03 Jun 2019 00:00,4.08,3.34,2.35,.19,6.04,.16
03 Jun 2019 12:00,6.55,5.19,3.99,.29,11.85,.22
04 Jun 2019 00:00,6.85,5.31,4.32,.33,6.78,.04
04 Jun 2019 12:00,5.35,4.29,3.19,.24,8.25,.17
05 Jun 2019 00:00,4.17,3.63,2.05,.16,7.12,.10
05 Jun 2019 12:00,5.02,4.52,2.19,.24,7.60,.14
06 Jun 2019 00:00,6.53,4.59,4.64,.28,7.96,.09
06 Jun 2019 12:00,4.28,3.47,2.52,.26,9.39,.23
07 Jun 2019 00:00,4.33,3.56,2.47,.20,6.27,.15
07 Jun 2019 12:00,4.44,3.65,2.53,.25,8.41,.20
08 Jun 2019 00:00,6.02,4.98,3.39,.33,13.17,.10
08 Jun 2019 12:00,6.42,5.07,3.93,.35,10.96,.12
09 Jun 2019 00:00,4.42,3.47,2.73,.28,10.26,.14
09 Jun 2019 12:00,5.55,4.49,3.26,.31,8.82,.20
10 Jun 2019 00:00,4.31,3.77,2.08,.24,10.91,.14
10 Jun 2019 12:00,6.16,5.00,3.59,.33,8.74,.17
11 Jun 2019 00:00,4.02,3.56,1.87,.18,6.28,.09
11 Jun 2019 12:00,4.46,3.76,2.39,.27,10.35,.21
12 Jun 2019 00:00,5.12,4.34,2.70,.24,9.49,.15
12 Jun 2019 12:00,na,na,na,na,na,na
14 Jun 2019 00:00,na,na,na,na,na,na
14 Jun 2019 12:00,na,na,na,na,na,na
15 Jun 2019 00:00,na,na,na,na,na,na
16 Jun 2019 00:00,na,na,na,na,na,na
17 Jun 2019 00:00,na,na,na,na,na,na
17 Jun 2019 12:00,4.61,3.92,2.42,.23,10.38,.15
18 Jun 2019 00:00,6.18,4.80,3.89,.33,19.22,.11
18 Jun 2019 12:00,7.76,5.48,5.48,.40,13.99,.30
19 Jun 2019 00:00,6.66,5.59,3.61,.31,12.25,.23
19 Jun 2019 12:00,5.34,4.45,2.94,.24,9.57,.20
20 Jun 2019 00:00,5.04,4.18,2.82,.27,11.19,.19
20 Jun 2019 12:00,5.68,4.71,3.16,.34,17.55,.23
21 Jun 2019 00:00,7.95,6.22,4.94,.35,10.11,.18
21 Jun 2019 12:00,5.79,4.17,4.01,.31,11.48,.19
22 Jun 2019 00:00,6.93,4.86,4.93,.34,17.16,.13
22 Jun 2019 12:00,4.90,3.97,2.86,.29,12.30,.18
23 Jun 2019 00:00,7.98,5.97,5.30,.39,13.64,.08
23 Jun 2019 12:00,4.89,4.04,2.75,.22,9.09,.26
24 Jun 2019 00:00,4.19,3.30,2.58,.22,6.13,.09
24 Jun 2019 12:00,6.60,4.50,4.83,.39,7.70,.10
25 Jun 2019 00:00,5.02,4.23,2.70,.28,9.87,.11
25 Jun 2019 12:00,4.72,3.83,2.76,.27,9.82,.25
26 Jun 2019 00:00,5.88,4.00,4.31,.38,10.26,.18
26 Jun 2019 12:00,4.79,3.68,3.07,.32,11.65,.22
27 Jun 2019 00:00,5.20,4.26,2.97,.33,12.85,.21
27 Jun 2019 12:00,6.14,4.44,4.23,.41,13.11,.22
28 Jun 2019 00:00,5.39,4.47,3.00,.36,12.19,.10
28 Jun 2019 12:00,4.45,3.63,2.57,.37,18.83,.14
29 Jun 2019 00:00,4.96,3.92,3.04,.36,10.92,.21
29 Jun 2019 12:00,4.60,3.83,2.55,.26,7.94,.21
30 Jun 2019 00:00,5.82,4.41,3.80,.40,16.39,.14
30 Jun 2019 12:00,6.63,4.71,4.67,.37,9.23,.28
01 Jul 2019 00:00,4.08,3.48,2.12,.26,8.21,.21
01 Jul 2019 12:00,4.29,3.61,2.33,.27,10.25,.24
02 Jul 2019 00:00,5.13,4.05,3.15,.26,8.46,.14
02 Jul 2019 12:00,5.14,3.69,3.57,.30,9.03,.19
03 Jul 2019 00:00,4.59,3.90,2.42,.24,10.56,.14
03 Jul 2019 12:00,5.92,4.50,3.84,.31,10.41,.24
04 Jul 2019 00:00,5.53,4.39,3.36,.30,9.42,.19
04 Jul 2019 12:00,4.10,3.41,2.27,.26,7.35,.22
05 Jul 2019 00:00,5.33,4.09,3.41,.31,7.14,.17
05 Jul 2019 12:00,4.71,3.92,2.60,.34,13.45,.25
06 Jul 2019 00:00,3.89,3.17,2.25,.27,10.53,.15
06 Jul 2019 12:00,5.03,3.94,3.12,.33,13.60,.26
07 Jul 2019 00:00,4.47,3.49,2.80,.26,9.90,.21
07 Jul 2019 12:00,4.93,4.07,2.79,.27,9.05,.19
08 Jul 2019 00:00,6.53,5.35,3.74,.26,10.79,.30
08 Jul 2019 12:00,7.14,5.36,4.71,.33,16.89,.22
09 Jul 2019 00:00,4.79,3.91,2.76,.29,9.98,.10
09 Jul 2019 12:00,6.03,4.93,3.46,.34,13.40,.24
10 Jul 2019 00:00,6.11,4.88,3.67,.37,13.49,.28
10 Jul 2019 12:00,6.51,5.33,3.73,.36,16.60,.17
11 Jul 2019 00:00,5.56,4.65,3.05,.27,11.57,.13
11 Jul 2019 12:00,5.23,4.06,3.28,.41,15.96,.21
12 Jul 2019 00:00,3.13,2.67,1.62,.24,12.69,.16
12 Jul 2019 12:00,4.01,3.33,2.22,.27,9.86,.18
13 Jul 2019 00:00,5.54,4.43,3.33,.32,10.64,.26
13 Jul 2019 12:00,4.08,3.46,2.16,.24,7.36,.38
14 Jul 2019 00:00,3.60,2.97,2.03,.18,9.13,.32
14 Jul 2019 12:00,5.48,4.32,3.36,.29,11.23,.23
15 Jul 2019 00:00,4.03,3.46,2.07,.20,8.19,.18
15 Jul 2019 12:00,5.15,4.39,2.68,.29,13.61,.33
16 Jul 2019 00:00,5.38,4.43,3.05,.37,15.56,.21
16 Jul 2019 12:00,5.75,4.59,3.45,.36,14.84,.25
17 Jul 2019 00:00,5.26,4.38,2.91,.32,13.68,.19
17 Jul 2019 12:00,4.72,3.63,3.01,.36,21.47,.18
18 Jul 2019 00:00,5.49,4.46,3.20,.36,17.35,.12
18 Jul 2019 12:00,5.79,4.65,3.45,.31,12.88,.35
19 Jul 2019 00:00,4.77,3.81,2.87,.34,15.76,.25
19 Jul 2019 12:00,4.66,3.82,2.67,.40,18.80,.26
20 Jul 2019 00:00,5.41,4.27,3.31,.34,14.21,.15
20 Jul 2019 12:00,4.81,3.56,3.24,.40,11.21,.25
21 Jul 2019 00:00,3.68,3.10,1.98,.22,8.34,.19
21 Jul 2019 12:00,4.96,3.87,3.10,.36,12.29,.31
22 Jul 2019 00:00,4.20,3.64,2.10,.21,10.92,.25
22 Jul 2019 12:00,4.66,3.93,2.50,.24,9.01,.35
23 Jul 2019 00:00,7.27,5.36,4.91,.39,14.49,.25
23 Jul 2019 12:00,4.76,3.84,2.82,.24,10.31,.31
24 Jul 2019 00:00,5.20,4.15,3.12,.27,9.28,.28
24 Jul 2019 12:00,5.07,4.29,2.71,.27,9.97,.45
25 Jul 2019 00:00,5.37,4.03,3.55,.23,10.66,.40
25 Jul 2019 12:00,5.72,4.58,3.42,.35,13.58,.44
26 Jul 2019 00:00,5.40,4.37,3.18,.34,13.47,.27
26 Jul 2019 12:00,4.57,3.67,2.72,.29,10.16,.34
27 Jul 2019 00:00,5.65,4.28,3.69,.44,17.50,.27
27 Jul 2019 12:00,5.31,4.30,3.12,.37,14.22,.47
28 Jul 2019 00:00,4.06,3.46,2.12,.33,10.59,.42
28 Jul 2019 12:00,3.96,3.16,2.39,.31,10.86,.76
29 Jul 2019 00:00,4.50,3.49,2.84,.30,9.88,.42
29 Jul 2019 12:00,4.81,3.91,2.80,.32,10.96,.58
30 Jul 2019 00:00,5.34,4.28,3.19,.29,10.44,.34
30 Jul 2019 12:00,4.36,3.67,2.35,.24,9.38,.40
31 Jul 2019 00:00,5.45,4.32,3.33,.32,10.98,.27
31 Jul 2019 12:00,4.77,3.86,2.80,.27,8.95,.35